Mayo, Yukon Territory

9:24 AM PDT on September 26, 2016 (GMT -0700)
Mayo

Weather History for CYMA - January, 2014

Change the Weather History Date:

Monday, January 20, 2014

  Actual Average Record
Temperature  
Mean Temperature -4 °F -  
Max Temperature 3 °F 0 °F 23 °F (2015)
Min Temperature -11 °F -17 °F 4 °F (2016)
Degree Days  
Heating Degree Days 69    
Moisture  
Dew Point -9 °F    
Average Humidity 78    
Maximum Humidity 85    
Minimum Humidity 68    
Precipitation  
Precipitation 0.00 in - - ()
Sea Level Pressure  
Sea Level Pressure 30.33 in    
Wind  
Wind Speed 0 mph ()    
Max Wind Speed 4 mph    
Max Gust Speed -    
Visibility 19.9 miles    
Events Fog    
Averages and records for this station are not official NWS values.
T = Trace of Precipitation, MM = Missing Value Source: Averaged Metar Reports

Daily Weather History Graph

Daily Weather History Graph

Search for Another Location

Airport or City:

Trip Planner

Search our weather history database for the weather conditions in past years. The results will help you decide how hot, cold, wet, or windy it might be!

Date:

Astronomy

Jan. 20, 2014 Rise Set
Actual Time 10:12 AM PST 4:17 PM PST
Civil Twilight 9:10 AM PST 5:19 PM PST
Nautical Twilight 8:09 AM PST 6:20 PM PST
Astronomical Twilight 7:13 AM PST 7:16 PM PST
Moon 10:58 PM PST (1/20) 10:27 AM PST (1/20)
Length of Visible Light 8h 09m
Length of Day
6h 05m
Waning Gibbous, 82% of the Moon is Illuminated
Jan 20
Waning Gibbous
Jan 23
Last Quarter
Jan 30
New
Feb 6
First Quarter
Feb 14
Full

Hourly Weather History & Observations

Time (PST) Temp. Windchill Dew Point Humidity Pressure Visibility Wind Dir Wind Speed Gust Speed Precip Events Conditions
12:00 AM -4.0 °F - -9.4 °F 78% 30.24 in 20.0 mi Calm Calm - N/A Fog Mostly Cloudy
1:00 AM -2.2 °F - -5.8 °F 85% 30.25 in 20.0 mi Calm Calm - N/A Fog Overcast
2:00 AM 1.4 °F - -4.0 °F 78% 30.24 in 20.0 mi Calm Calm - N/A   Overcast
3:00 AM 3.2 °F - -2.2 °F 78% 30.23 in 20.0 mi Calm Calm - N/A   Overcast
4:00 AM 0 °F - -4 °F 75% 30.25 in 19 mi SSW 1.2 mph - -   Overcast
4:00 AM -0.4 °F - -4.0 °F 85% 30.25 in 20.0 mi Calm Calm - N/A   Overcast
5:00 AM -2.2 °F - -5.8 °F 85% 30.27 in 20.0 mi Calm Calm - N/A   Partly Cloudy
6:00 AM -2.2 °F - -7.6 °F 78% 30.28 in 20.0 mi Calm Calm - N/A   Partly Cloudy
7:00 AM -4.0 °F - -9.4 °F 78% 30.28 in 20.0 mi Calm Calm - N/A   Scattered Clouds
8:00 AM -4.0 °F - -9.4 °F 78% 30.30 in 20.0 mi Calm Calm - N/A   Mostly Cloudy
9:00 AM -2.2 °F - -5.8 °F 85% 30.30 in 20.0 mi Variable 2.3 mph - N/A   Mostly Cloudy
10:00 AM -4 °F - -9 °F 69% 30.32 in 19 mi WSW 1.2 mph - -  
10:00 AM -4.0 °F - -9.4 °F 78% 30.32 in 20.0 mi Calm Calm - N/A   Mostly Cloudy
11:00 AM -5.8 °F - -11.2 °F 77% 30.33 in 20.0 mi Calm Calm - N/A   Mostly Cloudy
12:00 PM -4.0 °F - -9.4 °F 78% 30.35 in 20.0 mi Calm Calm - N/A   Scattered Clouds
1:00 PM -0.4 °F - -5.8 °F 78% 30.35 in 20.0 mi Calm Calm - N/A   Partly Cloudy
2:00 PM -0.4 °F - -5.8 °F 78% 30.37 in 20.0 mi Calm Calm - N/A   Partly Cloudy
3:00 PM 1.4 °F - -2.2 °F 85% 30.37 in 20.0 mi Calm Calm - N/A   Partly Cloudy
4:00 PM -2 °F - -7 °F 70% 30.37 in 19 mi East 1.2 mph - -  
4:00 PM -2.2 °F - -7.6 °F 78% 30.37 in 20.0 mi Calm Calm - N/A   Partly Cloudy
5:00 PM -4.0 °F - -7.6 °F 85% 30.39 in 20.0 mi Variable 2.3 mph - N/A   Partly Cloudy
6:00 PM -7.6 °F -16.5 °F -13.0 °F 77% 30.39 in 20.0 mi North 3.5 mph - N/A   Partly Cloudy
7:00 PM -7.6 °F -16.5 °F -13.0 °F 77% 30.40 in 20.0 mi NW 3.5 mph - N/A   Partly Cloudy
8:00 PM -9.4 °F - -14.8 °F 77% 30.40 in 20.0 mi Calm Calm - N/A   Partly Cloudy
9:00 PM -11.2 °F - -16.6 °F 77% 30.39 in 20.0 mi East 2.3 mph - N/A   Partly Cloudy
10:00 PM -9 °F - -14 °F 68% 30.40 in 19 mi East 2.3 mph - -  
10:00 PM -9.4 °F - -13.0 °F 84% 30.40 in 20.0 mi ESE 2.3 mph - N/A   Partly Cloudy
11:00 PM -11.2 °F - -16.6 °F 77% 30.40 in 20.0 mi Calm Calm - N/A   Clear